Regional Weather Roundup
Issued by NWS

Home | Current Version | Previous Version | Text Only | Print | Product List | Glossary On
Versions: 1 2 3 4 5 6 7 8 9 10 11 12 13 14 15 16 17 18 19 20 21 22 23 24 25 26 27 28 29 30 31 32 33 34 35 36 37 38 39 40 41 42 43 44 45 46 47 48 49 50
000
ASUS43 KOAX 031002
RWRNE

WEATHER ROUNDUP FOR NEBRASKA
NATIONAL WEATHER SERVICE OMAHA NE
500 AM CDT SUN MAY 03 2015

NOTES: SATELLITE DATA IS BEING USED TO AUGMENT CLOUD COVER ABOVE
       12000 FEET.
       "FAIR" INDICATES FEW OR NO CLOUDS BELOW 12,000 FEET WITH NO
       SIGNIFICANT WEATHER AND/OR OBSTRUCTIONS TO VISIBILITY.

  * THESE STATIONS DO NOT REPORT WEATHER SUCH AS RAIN...SNOW OR FOG.

NEZ001>004-019>022-054>056-031100-
NEBRASKA PANHANDLE

CITY           SKY/WX    TMP DP  RH WIND       PRES   REMARKS
SCOTTSBLUFF    MOCLDY    54  41  61 CALM      29.81S
ALLIANCE       PTCLDY    43  40  89 W9        29.78S
CHADRON        MOCLDY    46  39  76 SW5       29.77R
KIMBALL        CLEAR     49  42  76 W10       29.86F
SIDNEY         CLEAR     52  42  69 W12       29.84F
$$

NEZ057>060-069>072-079>082-031100-
SOUTHWEST NEBRASKA

CITY           SKY/WX    TMP DP  RH WIND       PRES   REMARKS
NORTH PLATTE   PTCLDY    51  45  79 SW3       29.77R
IMPERIAL       CLEAR     51  42  71 W8        29.79S
MCCOOK         MOCLDY    56  45  66 W6        29.77S
$$

NEZ005>010-023>029-035>040-094-031100-
NORTH CENTRAL NEBRASKA

CITY           SKY/WX    TMP DP  RH WIND       PRES   REMARKS
VALENTINE      PTCLDY    43  38  82 W6        29.70S
AINSWORTH      MOCLDY    50  44  78 CALM      29.70S
BROKEN BOW     PTCLDY    53  41  63 SW5       29.72R
ORD            PTCLDY    52  47  83 E3        29.70R
$$

NEZ041-046>049-061>064-073>077-083>087-031100-
SOUTH CENTRAL NEBRASKA

CITY           SKY/WX    TMP DP  RH WIND       PRES   REMARKS
GRAND ISLAND   FAIR      55  51  86 SE6       29.72F
AURORA         PTCLDY    59  53  82 SE10      29.73S
HASTINGS       MOCLDY    61  51  70 SW6       29.72S
KEARNEY *      MOCLDY    61  46  59 SW7       29.73S
$$

NEZ011>018-030>034-042>045-031100-
NORTHEAST NEBRASKA

CITY           SKY/WX    TMP DP  RH WIND       PRES   REMARKS
NORFOLK        CLEAR     62  52  69 SE10      29.73S
BLAIR          PTCLDY    60  53  79 S9        29.76S
COLUMBUS *     CLEAR     63  50  63 SE14G20   29.75F
FREMONT        CLEAR     64  52  65 SE14      29.75F
TEKAMAH        PTCLDY    58  54  86 S7        29.73S
$$

NEZ050>053-065>068-078-088>093-031100-
SOUTHEAST NEBRASKA

CITY           SKY/WX    TMP DP  RH WIND       PRES   REMARKS
LINCOLN        CLEAR     62  54  74 SE15      29.78F
OMAHA EPPLEY   MOCLDY    60  57  89 S13       29.77F
FALLS CITY     MOCLDY    59  53  80 E8        29.82F
NEBRASKA CITY  PTCLDY    59  53  80 E5        29.82F
PLATTSMOUTH    PTCLDY    60  55  83 SE9       29.79F
$$

NEZ044-045-051>053-067-031100-
OMAHA AREA

CITY           SKY/WX    TMP DP  RH WIND       PRES   REMARKS
OMAHA EPPLEY   MOCLDY    60  57  89 S13       29.77F
BLAIR          PTCLDY    60  53  79 S9        29.76S
FREMONT        CLEAR     64  52  65 SE14      29.75F
OFFUTT AFB     PTCLDY    59  57  91 SE7       29.77F
PLATTSMOUTH    PTCLDY    60  55  83 SE9       29.79F
WAHOO          FAIR      58  52  79 S10       29.76F
$$



USA.gov is the U.S. government's official web portal to all federal, state and local government web resources and services.